GW3762 Weather Reports


Display with metric or nautical units.
time (UTC)temp
F
wind
direction
speed
MPH
gust
MPH
rain 1hr
in
rain 24hr
in
rain mn
in
humidity
%
barometer
mb
20260902093458 59 64 8.0 8.0 0.00 0.37 0.00 96 1020.6
20260902092959 59 71 8.0 8.0 0.00 0.37 0.00 96 1020.5
20260902092458 59 75 3.0 8.0 0.00 0.37 0.00 96 1020.4
20260902091958 59 57 4.0 8.0 0.00 0.37 0.00 96 1020.4
20260902091458 59 82 4.0 8.0 0.00 0.37 0.00 96 1020.3
20260902090958 59 53 2.0 8.0 0.00 0.37 0.00 96 1020.4
20260902090458 59 53 4.0 9.0 0.00 0.37 0.00 96 1020.3
20260902090001 59 63 6.0 9.0 0.00 0.37 0.00 96 1020.2
20260902085459 59 65 4.0 9.0 0.00 0.39 0.00 96 1020.2
20260902084959 59 63 4.0 10.0 0.00 0.39 0.00 96 1020.2
20260902083959 59 42 6.0 9.0 0.00 0.39 0.00 96 1020.2
20260902083459 59 75 5.0 9.0 0.00 0.39 0.00 96 1020.2
20260902082959 59 62 5.0 7.0 0.00 0.39 0.00 96 1020.1
20260902082500 59 61 6.0 7.0 0.00 0.39 0.00 96 1020.1
20260902081959 59 68 4.0 8.0 0.00 0.39 0.00 96 1020.1
20260902081459 59 44 5.0 10.0 0.00 0.39 0.00 96 1020.0
20260902081000 59 40 4.0 12.0 0.00 0.39 0.00 96 1020.0
20260902080500 59 63 5.0 12.0 0.00 0.39 0.00 96 1019.9
20260902075958 59 45 7.0 11.0 0.00 0.45 0.00 96 1019.9
20260902074958 59 65 4.0 10.0 0.00 0.45 0.00 96 1019.9
20260902074457 59 12 5.0 10.0 0.00 0.45 0.00 96 1019.9
20260902073958 59 78 4.0 11.0 0.00 0.45 0.00 96 1019.9
20260902073458 59 70 6.0 11.0 0.00 0.45 0.00 96 1019.8
20260902072958 59 61 5.0 10.0 0.00 0.45 0.00 96 1019.9
20260902072458 59 59 6.0 10.0 0.00 0.45 0.00 96 1019.9
20260902071959 59 51 5.0 11.0 0.00 0.45 0.00 96 1019.8
20260902071458 59 67 8.0 11.0 0.00 0.45 0.00 96 1019.8
20260902070959 59 85 7.0 11.0 0.00 0.45 0.00 96 1019.9
20260902070458 59 61 5.0 11.0 0.00 0.45 0.00 96 1019.8
20260902065958 59 86 8.0 8.0 0.00 0.58 0.00 96 1019.9
20260902064958 59 50 7.0 9.0 0.00 0.58 0.00 96 1019.7
20260902063958 60 64 5.0 8.0 0.00 0.58 0.00 96 1019.6
20260902063458 60 67 4.0 8.0 0.00 0.58 0.00 96 1019.8
20260902062958 60 61 4.0 8.0 0.00 0.58 0.00 96 1019.8
20260902062458 60 71 4.0 6.0 0.00 0.58 0.00 96 1019.8
20260902061958 60 70 5.0 7.0 0.00 0.58 0.00 96 1019.8
20260902060957 60 59 4.0 8.0 0.00 0.58 0.00 96 1019.8
20260902060458 60 68 6.0 9.0 0.00 0.58 0.00 96 1019.7
20260902055459 60 47 2.0 8.0 0.00 0.58 0.00 96 1019.9
20260902054959 60 36 6.0 9.0 0.00 0.58 0.00 96 1019.9
20260902054459 60 56 6.0 9.0 0.00 0.58 0.00 96 1020.1
20260902053459 60 74 4.0 9.0 0.00 0.58 0.00 96 1019.9
20260902053000 60 58 6.0 6.0 0.00 0.58 0.00 96 1020.0
20260902052000 60 59 3.0 6.0 0.00 0.58 0.00 96 1019.9
20260902051459 60 59 2.0 5.0 0.00 0.58 0.00 96 1019.9
20260902050003 60 32 3.0 6.0 0.00 0.58 0.00 96 1019.7
20260902045500 60 42 3.0 6.0 0.00 0.58 0.00 96 1019.6
20260902043500 60 64 5.0 8.0 0.00 0.58 0.00 96 1019.6
20260902043000 60 71 4.0 9.0 0.00 0.58 0.00 96 1019.4
20260902042459 60 55 4.0 8.0 0.00 0.58 0.00 96 1019.5
20260902041500 60 54 3.0 7.0 0.00 0.58 0.00 96 1019.5
20260902041000 60 62 4.0 6.0 0.00 0.58 0.00 96 1019.6
20260902040501 60 64 4.0 6.0 0.00 0.58 0.00 96 1019.6
20260902040000 60 64 4.0 8.0 0.00 0.58 0.58 96 1019.5
20260902035459 60 61 3.0 8.0 0.00 0.58 0.58 96 1019.6
20260902034959 60 84 3.0 6.0 0.00 0.58 0.58 96 1019.5
20260902034501 60 44 3.0 6.0 0.00 0.58 0.58 96 1019.4
20260902034002 60 38 3.0 7.0 0.00 0.58 0.58 96 1019.3
20260902032959 60 38 7.0 11.0 0.00 0.58 0.58 96 1018.9
20260902032500 60 55 3.0 11.0 0.00 0.58 0.58 96 1018.9
20260902032000 60 84 7.0 7.0 0.00 0.58 0.58 96 1019.1
20260902031500 60 38 2.0 9.0 0.00 0.58 0.58 96 1019.2
20260902031001 60 69 4.0 10.0 0.00 0.58 0.58 96 1018.9
20260902030003 60 71 3.0 8.0 0.00 0.58 0.58 96 1019.0
20260902025459 60 61 4.0 6.0 0.00 0.58 0.58 96 1019.2
20260902025000 60 52 5.0 7.0 0.00 0.58 0.58 96 1019.0
20260902024500 60 77 7.0 9.0 0.00 0.58 0.58 96 1018.8
20260902024001 60 58 4.0 9.0 0.00 0.58 0.58 96 1018.7
20260902023500 60 67 4.0 7.0 0.00 0.58 0.58 96 1018.8
20260902023000 60 77 3.0 6.0 0.00 0.58 0.58 96 1018.8
20260902022500 60 29 2.0 6.0 0.00 0.58 0.58 96 1018.7
20260902022000 60 56 4.0 10.0 0.00 0.58 0.58 96 1018.8
20260902021459 60 75 3.0 10.0 0.00 0.58 0.58 96 1018.8
20260902021000 60 34 5.0 9.0 0.01 0.58 0.58 96 1018.8
20260902020500 60 66 6.0 9.0 0.01 0.58 0.58 96 1018.7
20260902020002 60 24 6.0 10.0 0.01 0.58 0.58 96 1018.6
20260902015001 60 52 5.0 9.0 0.01 0.58 0.58 96 1018.5
20260902014501 60 55 4.0 11.0 0.01 0.58 0.58 96 1018.4
20260902014001 60 77 8.0 9.0 0.01 0.58 0.58 96 1018.4
20260902013501 60 41 4.0 10.0 0.01 0.58 0.58 96 1018.4
20260902013003 60 48 5.0 10.0 0.01 0.58 0.58 96 1018.1
20260902012500 60 42 4.0 10.0 0.01 0.58 0.58 96 1018.0
20260902012001 60 46 5.0 11.0 0.01 0.58 0.58 96 1018.1
20260902011500 60 78 7.0 12.0 0.01 0.58 0.58 96 1018.1
20260902011002 60 64 6.0 10.0 0.00 0.57 0.57 96 1018.1
20260902010501 60 57 5.0 12.0 0.00 0.57 0.57 96 1017.8
20260902010003 60 61 8.0 12.0 0.00 0.57 0.57 96 1017.8
20260902005500 60 68 9.0 11.0 0.00 0.57 0.57 96 1018.0
20260902004959 60 57 6.0 10.0 0.00 0.57 0.57 96 1018.0
20260902004500 60 63 4.0 10.0 0.00 0.57 0.57 96 1018.1
20260902004000 60 69 4.0 10.0 0.00 0.57 0.57 96 1018.0
20260902003501 60 38 5.0 10.0 0.00 0.57 0.57 96 1017.8
20260902003000 60 58 5.0 11.0 0.00 0.57 0.57 96 1017.7
20260902002001 60 76 8.0 10.0 0.00 0.57 0.57 96 1017.6
20260902001459 60 61 5.0 11.0 0.00 0.57 0.57 95 1017.5
20260902001000 60 61 4.0 12.0 0.00 0.57 0.57 95 1017.7
20260902000500 60 69 5.0 12.0 0.00 0.57 0.57 95 1017.7
20260902000001 60 69 10.0 14.0 0.00 0.57 0.57 95 1017.7
20260901235459 60 74 7.0 15.0 0.02 0.57 0.57 95 1017.4
20260901234959 61 65 8.0 12.0 0.13 0.57 0.57 96 1017.5
20260901234500 61 71 9.0 12.0 0.21 0.57 0.57 96 1017.4
20260901233500 61 45 10.0 12.0 0.23 0.57 0.57 95 1017.3
20260901233000 61 44 9.0 11.0 0.23 0.57 0.57 95 1017.3
20260901232501 61 53 5.0 12.0 0.23 0.57 0.57 95 1017.6
20260901231459 61 63 6.0 11.0 0.23 0.57 0.57 95 1017.5
20260901231000 61 59 6.0 10.0 0.23 0.57 0.57 95 1017.4
20260901230459 61 57 6.0 11.0 0.23 0.57 0.57 95 1017.3
20260901230004 61 30 5.0 12.0 0.24 0.57 0.57 95 1017.1
20260901225500 61 78 11.0 12.0 0.23 0.55 0.55 95 1017.3
20260901224500 62 48 7.0 14.0 0.04 0.36 0.36 95 1017.0
20260901224000 62 44 9.0 14.0 0.02 0.34 0.34 95 1017.0
20260901223500 62 80 5.0 14.0 0.02 0.34 0.34 95 1017.0
20260901222959 62 47 7.0 13.0 0.02 0.34 0.34 95 1017.0
20260901222500 62 46 7.0 13.0 0.02 0.34 0.34 95 1016.8
20260901222000 62 77 8.0 13.0 0.02 0.34 0.34 95 1016.8
20260901221500 63 55 6.0 15.0 0.02 0.34 0.34 95 1016.7
20260901221000 63 65 10.0 15.0 0.02 0.34 0.34 95 1016.8
20260901215459 63 71 4.0 13.0 0.00 0.32 0.32 95 1016.5
20260901215000 63 53 10.0 14.0 0.00 0.32 0.32 95 1016.4
20260901214459 64 61 9.0 14.0 0.00 0.32 0.32 95 1016.4
20260901214000 64 61 6.0 9.0 0.00 0.32 0.32 95 1016.6
20260901213001 64 82 8.0 11.0 0.00 0.32 0.32 95 1016.6
20260901211459 65 49 3.0 9.0 0.00 0.32 0.32 95 1016.4
20260901211000 65 75 5.0 7.0 0.00 0.32 0.32 95 1016.4
20260901210500 65 66 3.0 6.0 0.00 0.32 0.32 95 1016.4
20260901210000 66 45 2.0 8.0 0.00 0.32 0.32 95 1016.3
20260901205459 66 60 3.0 8.0 0.00 0.32 0.32 95 1016.2
20260901204458 66 82 7.0 7.0 0.00 0.32 0.32 95 1016.1
20260901203959 66 50 6.0 7.0 0.00 0.32 0.32 95 1016.1
20260901203458 66 76 5.0 7.0 0.00 0.32 0.32 95 1016.0
20260901201958 67 39 4.0 9.0 0.00 0.32 0.32 95 1016.0
20260901200003 68 88 0.0 5.0 0.00 0.32 0.32 95 1015.9
20260901195500 68 73 2.0 6.0 0.00 0.32 0.32 95 1015.8
20260901195000 68 57 3.0 8.0 0.00 0.32 0.32 95 1015.8
20260901194501 69 70 4.0 8.0 0.00 0.32 0.32 95 1015.9
20260901194000 70 56 3.0 6.0 0.00 0.32 0.32 95 1015.8
20260901193500 71 45 2.0 3.0 0.00 0.32 0.32 96 1015.7
20260901192959 71 46 0.0 2.0 0.00 0.32 0.32 96 1015.7
20260901192459 71 46 1.0 2.0 0.00 0.32 0.32 96 1015.6
20260901191500 71 218 0.0 0.0 0.00 0.32 0.32 96 1015.5
20260901191000 71 218 0.0 0.0 0.00 0.32 0.32 96 1015.5
20260901190500 71 218 0.0 0.0 0.00 0.32 0.32 96 1015.6
20260901190000 71 218 0.0 1.0 0.00 0.32 0.32 96 1015.5
20260901185500 71 217 0.0 1.0 0.00 0.32 0.32 96 1015.6
20260901185000 71 217 0.0 1.0 0.00 0.32 0.32 96 1015.6
20260901184500 71 217 0.0 0.0 0.00 0.32 0.32 96 1015.6
20260901184000 71 217 0.0 0.0 0.00 0.32 0.32 96 1015.7
20260901183459 70 217 0.0 0.0 0.00 0.32 0.32 96 1015.7
20260901182959 71 217 0.0 0.0 0.00 0.32 0.32 96 1015.7
20260901182500 71 217 0.0 0.0 0.00 0.32 0.32 96 1015.7
20260901181459 70 217 0.0 0.0 0.00 0.32 0.32 96 1015.7
20260901181000 70 217 0.0 0.0 0.00 0.32 0.32 96 1015.8
20260901180459 70 217 0.0 0.0 0.00 0.32 0.32 96 1015.8
20260901180003 70 217 0.0 0.0 0.00 0.32 0.32 96 1015.9
20260901175459 70 217 0.0 1.0 0.00 0.32 0.32 96 1015.9
20260901175000 70 217 0.0 1.0 0.00 0.32 0.32 96 1015.8
20260901174459 70 200 0.0 0.0 0.00 0.32 0.32 96 1015.8
20260901174000 70 200 0.0 0.0 0.00 0.32 0.32 96 1015.8
20260901173459 70 200 0.0 0.0 0.00 0.32 0.32 96 1015.8
20260901172000 70 200 2.0 3.0 0.00 0.32 0.32 96 1015.7
20260901171459 70 199 0.0 0.0 0.00 0.32 0.32 96 1015.7
20260901170459 70 198 0.0 0.0 0.00 0.32 0.32 96 1015.7
20260901170002 70 233 0.0 2.0 0.00 0.32 0.32 96 1015.8
20260901165459 70 233 0.0 3.0 0.00 0.32 0.32 96 1015.8
20260901164459 70 233 2.0 3.0 0.00 0.32 0.32 96 1016.0
20260901163459 70 233 2.0 3.0 0.00 0.32 0.32 96 1016.1
20260901162959 69 229 1.0 3.0 0.00 0.32 0.32 96 1016.0
20260901162459 69 229 0.0 3.0 0.00 0.32 0.32 96 1016.0
20260901162002 70 231 0.0 3.0 0.00 0.32 0.32 96 1016.2
20260901161500 70 231 0.0 3.0 0.00 0.32 0.32 96 1016.3
20260901160959 70 248 2.0 3.0 0.00 0.32 0.32 96 1016.3
20260901155959 70 250 1.0 3.0 0.00 0.32 0.32 96 1016.6
20260901155459 70 240 0.0 2.0 0.00 0.32 0.32 96 1016.5
20260901154959 69 253 0.0 2.0 0.00 0.32 0.32 96 1016.5
20260901154500 69 253 2.0 2.0 0.00 0.32 0.32 96 1016.5
20260901154000 69 253 0.0 2.0 0.00 0.32 0.32 96 1016.5
20260901153500 69 254 0.0 0.0 0.00 0.32 0.32 96 1016.4
20260901152459 69 265 0.0 0.0 0.01 0.32 0.32 96 1016.5
20260901151959 69 265 0.0 1.0 0.01 0.32 0.32 96 1016.3
20260901151500 69 265 0.0 1.0 0.01 0.32 0.32 96 1016.4
20260901150959 69 264 0.0 0.0 0.01 0.32 0.32 96 1016.6
20260901145959 69 270 0.0 0.0 0.02 0.32 0.32 96 1016.4
20260901144959 69 270 0.0 0.0 0.03 0.32 0.32 96 1016.7
20260901144459 69 198 0.0 0.0 0.04 0.32 0.32 96 1016.6
20260901144000 69 198 0.0 1.0 0.04 0.32 0.32 96 1016.8
20260901143500 69 198 0.0 1.0 0.05 0.31 0.31 96 1016.8
20260901142959 68 198 0.0 2.0 0.06 0.31 0.31 96 1016.8
20260901141959 68 193 0.0 0.0 0.07 0.31 0.31 96 1016.9
20260901141459 68 193 0.0 0.0 0.07 0.31 0.31 96 1016.9
20260901140959 68 193 0.0 0.0 0.08 0.31 0.31 96 1017.0
20260901140500 68 193 0.0 0.0 0.07 0.30 0.30 96 1016.9
20260901140002 68 193 0.0 0.0 0.07 0.30 0.30 96 1016.8
20260901135459 68 193 0.0 0.0 0.07 0.30 0.30 96 1016.8
20260901135000 68 193 0.0 0.0 0.06 0.29 0.29 96 1016.9
20260901133459 68 193 0.0 2.0 0.03 0.26 0.26 96 1017.2
20260901132959 68 192 0.0 0.0 0.02 0.25 0.25 96 1017.0
20260901132459 68 192 0.0 0.0 0.01 0.24 0.24 96 1017.0
20260901132000 68 192 0.0 0.0 0.01 0.24 0.24 96 1016.9
20260901131459 68 192 0.0 0.0 0.01 0.24 0.24 96 1016.9
20260901130959 68 192 0.0 2.0 0.00 0.23 0.23 96 1016.8
20260901130459 68 192 0.0 2.0 0.01 0.23 0.23 96 1016.9
20260901125959 68 176 0.0 2.0 0.01 0.23 0.23 96 1017.1
20260901125500 68 176 0.0 2.0 0.01 0.23 0.23 96 1017.0
20260901124959 67 198 0.0 2.0 0.01 0.23 0.23 96 1016.9
20260901124459 67 261 0.0 0.0 0.01 0.23 0.23 96 1017.0
20260901123959 67 261 0.0 0.0 0.01 0.23 0.23 96 1017.0
20260901123500 67 261 0.0 0.0 0.01 0.23 0.23 96 1017.1
20260901123000 67 261 0.0 0.0 0.01 0.23 0.23 96 1017.0
20260901122500 67 283 0.0 0.0 0.01 0.23 0.23 96 1017.0
20260901122000 67 290 0.0 0.0 0.01 0.23 0.23 96 1016.9
20260901121459 67 290 0.0 0.0 0.01 0.23 0.23 96 1016.9
20260901120459 67 290 0.0 0.0 0.00 0.22 0.22 96 1017.1
20260901120000 67 290 0.0 0.0 0.00 0.22 0.22 96 1017.1
20260901115458 67 290 0.0 2.0 0.00 0.22 0.22 96 1017.1
20260901114959 67 290 0.0 3.0 0.00 0.22 0.22 95 1017.0
20260901114458 67 290 0.0 3.0 0.00 0.22 0.22 95 1016.9
20260901113458 67 191 0.0 0.0 0.00 0.22 0.22 95 1016.8
20260901112959 67 191 0.0 0.0 0.00 0.22 0.22 95 1016.9
20260901112458 67 213 0.0 0.0 0.00 0.22 0.22 95 1016.9
20260901111958 67 213 0.0 0.0 0.00 0.22 0.22 95 1016.9
20260901111458 67 213 0.0 0.0 0.00 0.22 0.22 95 1016.8
20260901110958 67 213 0.0 0.0 0.00 0.22 0.22 95 1016.9
20260901110459 67 213 0.0 0.0 0.00 0.22 0.22 95 1016.9
20260901105458 67 213 0.0 0.0 0.00 0.22 0.22 95 1016.9
20260901104958 67 213 0.0 0.0 0.00 0.22 0.22 95 1016.9
20260901104458 67 213 0.0 0.0 0.00 0.22 0.22 95 1016.8
20260901103959 67 213 0.0 0.0 0.00 0.22 0.22 95 1016.8
20260901103458 67 211 0.0 0.0 0.00 0.22 0.22 95 1016.8
20260901102958 67 211 0.0 0.0 0.00 0.22 0.22 95 1016.9
20260901102458 67 211 0.0 1.0 0.00 0.22 0.22 95 1016.6
20260901101958 67 292 0.0 0.0 0.00 0.22 0.22 95 1016.7
20260901101458 67 292 0.0 0.0 0.00 0.22 0.22 95 1016.7
20260901100958 67 292 0.0 0.0 0.01 0.22 0.22 95 1016.8
20260901100002 67 216 0.0 0.0 0.01 0.22 0.22 95 1016.6
20260901095459 67 216 0.0 0.0 0.01 0.22 0.22 95 1016.6
20260901094959 67 216 0.0 0.0 0.01 0.22 0.22 95 1016.8
20260901093959 67 216 0.0 0.0 0.02 0.22 0.22 95 1016.7